User: anonymous   Login
Location: Unspecified
(0.0000°N, 0.0000°E)
Time: 10:37:12
(UTC+00:00)
Language:

USA 171 - Orbit

View from above orbital plane
View from above orbital plane
View from above satellite
View from above satellite

Ground track
Ground track

The orbit data is extracted from the following two-line orbital elements,

1 27937U 03041A   18164.25629917 0.00000000  00000-0  00000-0 0    00
2 27937  10.0024  61.8306 0043370 213.8190 145.8066  1.00270000    02
Epoch (UTC): 13 June 2018 06:09:04
Eccentricity: 0.0043370
inclination: 10.0024°
perigee height: 35604 km
apogee height: 35969 km
right ascension of ascending node: 61.8306°
argument of perigee: 213.8190°
revolutions per day: 1.00270000
mean anomaly at epoch: 145.8066°
orbit number at epoch: 0

The dashed part of the orbit path shows where the satellite is in the earth's shadow,  

DLR